STARLINK-6281, 56410

Orbit data source: Space-Track

STARLINK-6281, 56410 is a payload satellite owned by SpaceX/Seattle (US) in LEO that was launched on Thu, 04 May 2023 UTC via an FALCON 9 launch vehicle from the Air Force Eastern Test Range (AFETR). Payload-class satellites include a variety of spacecraft equipped with specific instruments for various scientific and technological missions. These include communications satellites like Starlink; space stations such as the ISS; scientific satellites like the Hubble; Earth observation satellites from companies like Planet Labs, Umbra, and HawkEye 360; GPS; miniature CubeSats for education and research; and military/defense satellites.

Loading next visibility...
Identifier
56410, 2023-061AN
Orbit
LEO
Last TLE update
14 hours ago
Origin
Manufacturer
SpaceX/Seattle
Mission
Operational Commercial Communications
Bus & Motor
STARLINK, Unknown motor
Mass
305 kg wet, ~290 kg dry
Launch date (UTC)
2023-05-04 (2 years ago)
Launch vehicle
FALCON 9
Launch site
Air Force Eastern Test Range (AFETR)
Object type
Payload
Rocket body
Debris
Shape & HBR
Box + 1 Pan, 9 m
Radar Cross Section
11.087 m², Large (>1 m²)

Expand to show TLE details & history

TLE from 14 hours ago
0 STARLINK-6281
1 56410U 23061AN  25189.03443838 -.00000020  00000-0  13578-4 0  9997
2 56410  43.0078  73.7213 0001640 257.5018 102.5640 15.02531609120397
Epoch: 2025-07-08T00:49Z
TLE epoch observation values (Epoch: 2025-07-08T00:49:35.476Z)
Latitude
-0.00007°
Longitude
135.08819°
Altitude
559.119 km
Speed
7.584 km/s
True Right ascension
04h 54m 53s
True Declination
0° 00' 00"
Sunlit
Object was in daylight at epoch
Visualization orbit readout
Latitude
-19.33976°
Longitude
-26.03625°
Altitude
562.623 km
Speed
7.581 km/s
Apparent Right ascension
16h 40m 32s
Apparent Declination
-31° 45' 52"
Sunlit
Object is in full shadow
Visualization observer readout
Local Sidereal Time
02:37:38
Azimuth
278.537° WNW
Elevation
-63.943°
Doppler factor
1
Orbital elements
Apogee altitude
562.154 km
Perigee altitude
559.878 km
Semi-major axis
6,939.153 km
Eccentricity
0.00016
Inclination
43.0078°
RAAN
73.7213°
Arg. of periapsis
257.5018°
True anomaly
Unknown
Mean anomaly
102.564°
Eccentric anomaly
Unknown
Mean motion
3.75477 °/min
Orbital period
95.88 mins
BSTAR
0.000013578
Loading maneuver chart data...
Loading SW <> Apogee altitude chart data...
Loading historical data...
Loading historical data...
Loading historical data...
Loading historical data...
Loading historical data...
Loading historical data...
Loading historical data...

STARLINK-6281 Visibility forecast

Observer location: undefined°, undefined°

Span
Click to sort rows by Start time (UTC) header in descending order
Start Az.
Max El. time (UTC)
Max El. Az.
Max El.
End time (UTC)
End Az.
5 mins2025-07-08 18:32:55.692Z179.512° S2025-07-08 18:34:55.692Z150.056° SSE15.963°2025-07-08 18:37:55.692Z103.027° ESE
6 mins2025-07-08 20:12:55.692Z235.528° WSW2025-07-08 20:15:55.692Z123.099° SE42.03°2025-07-08 20:18:55.692Z75.809° E
6 mins2025-07-08 21:53:55.692Z282.079° WNW2025-07-08 21:55:55.692Z325.753° NNW39.015°2025-07-08 21:59:55.692Z72.435° E
6 mins2025-07-08 23:34:55.692Z293.571° NW2025-07-08 23:36:55.692Z333.402° NNW41.981°2025-07-08 23:40:55.692Z95.849° ESE
5 mins2025-07-09 01:15:55.692Z263.816° W2025-07-09 01:17:55.692Z208.225° SW33.247°2025-07-09 01:20:55.692Z144.595° SSE
|